User: anonymous   Login
Location: Stigler
(35.2540°N, 95.1230°W)
Time: 05:51:34
(UTC-05:00)
Language:

Cosmos 1805 - Orbit

View from above orbital plane
View from above orbital plane
View from above satellite
View from above satellite

Ground track
Ground track

The orbit data is extracted from the following two-line orbital elements,

1 17191U 86097A   17205.50071095 +.00000465 +00000-0 +25500-4 0  9992
2 17191 082.4736 352.7208 0003508 324.5813 035.5184 15.11785470668993
Epoch (UTC): 24 July 2017 12:01:01
Eccentricity: 0.0003508
inclination: 82.4736°
perigee height: 528 km
apogee height: 533 km
right ascension of ascending node: 352.7208°
argument of perigee: 324.5813°
revolutions per day: 15.11785470
mean anomaly at epoch: 35.5184°
orbit number at epoch: 66899

The dashed part of the orbit path shows where the satellite is in the earth's shadow,  

DLR